Houston, TX

7:20 AM CST on December 11, 2016 (GMT -0600)
Ellington

Weather History for KEFD - October, 2012

Change the Weather History Date:

Thursday, October 11, 2012

  Actual Average Record
Temperature  
Mean Temperature 81 °F -  
Max Temperature 89 °F 79 °F 91 °F (2013)
Min Temperature 73 °F 62 °F 59 °F (1996)
Cooling Degree Days 16    
Growing Degree Days 31 (Base 50)    
Moisture  
Dew Point 71 °F    
Average Humidity 76    
Maximum Humidity 89    
Minimum Humidity 52    
Precipitation  
Precipitation 0.00 in - - ()
Sea Level Pressure  
Sea Level Pressure 30.13 in    
Wind  
Wind Speed 4 mph (ESE)    
Max Wind Speed 15 mph    
Max Gust Speed 23 mph    
Visibility 10 miles    
Events      
Averages and records for this station are not official NWS values.
T = Trace of Precipitation, MM = Missing Value Source: NWS Daily Summary

Daily Weather History Graph

Daily Weather History Graph

Search for Another Location

Airport or City:

Trip Planner

Search our weather history database for the weather conditions in past years. The results will help you decide how hot, cold, wet, or windy it might be!

Date:

Astronomy

Oct. 11, 2012 Rise Set
Actual Time 7:20 AM CDT 6:53 PM CDT
Civil Twilight 6:56 AM CDT 7:17 PM CDT
Nautical Twilight 6:28 AM CDT 7:45 PM CDT
Astronomical Twilight 6:00 AM CDT 8:13 PM CDT
Moon 3:17 AM CDT 4:16 PM CDT
Length of Visible Light 12h 21m
Length of Day
11h 33m
Waning Crescent, 18% of the Moon is Illuminated
Oct 11
Waning Crescent
Oct 15
New
Oct 21
First Quarter
Oct 29
Full
Nov 6
Last Quarter

Hourly Weather History & Observations

Time (CDT) Temp. Heat Index Dew Point Humidity Pressure Visibility Wind Dir Wind Speed Gust Speed Precip Events Conditions
12:50 AM 73.4 °F - 68.0 °F 83% 30.10 in 10.0 mi Calm Calm - N/A   Scattered Clouds
1:50 AM 73.4 °F - 68.0 °F 83% 30.10 in 10.0 mi Calm Calm - N/A   Mostly Cloudy
2:50 AM 75.2 °F - 69.8 °F 83% 30.10 in 10.0 mi Calm Calm - N/A   Mostly Cloudy
3:50 AM 75.2 °F - 69.8 °F 83% 30.09 in 10.0 mi Calm Calm - N/A   Overcast
4:50 AM 77.0 °F - 69.8 °F 78% 30.09 in 10.0 mi Calm Calm - N/A   Mostly Cloudy
5:50 AM 75.2 °F - 71.6 °F 89% 30.10 in 10.0 mi Calm Calm - N/A   Mostly Cloudy
6:50 AM 75.2 °F - 71.6 °F 89% 30.12 in 10.0 mi ESE 2.3 mph - N/A   Scattered Clouds
7:50 AM 75.2 °F - 71.6 °F 89% 30.13 in 10.0 mi Calm Calm - N/A   Scattered Clouds
8:50 AM 78.8 °F - 75.2 °F 89% 30.15 in 10.0 mi ESE 8.1 mph - N/A   Scattered Clouds
9:50 AM 80.6 °F 85.4 °F 73.4 °F 79% 30.17 in 10.0 mi ESE 11.5 mph - N/A   Scattered Clouds
10:50 AM 82.4 °F 87.2 °F 71.6 °F 70% 30.18 in 10.0 mi ESE 12.7 mph - N/A   Scattered Clouds
11:50 AM 84.2 °F 89.6 °F 71.6 °F 66% 30.18 in 10.0 mi ESE 13.8 mph - N/A   Scattered Clouds
12:50 PM 86.0 °F 90.4 °F 69.8 °F 58% 30.16 in 10.0 mi ESE 15.0 mph 23.0 mph N/A   Scattered Clouds
1:50 PM 87.8 °F 93.8 °F 71.6 °F 58% 30.12 in 10.0 mi ESE 11.5 mph - N/A   Scattered Clouds
2:50 PM 87.8 °F 93.8 °F 71.6 °F 58% 30.12 in 10.0 mi ESE 11.5 mph - N/A   Scattered Clouds
3:50 PM 89.6 °F 96.2 °F 71.6 °F 55% 30.12 in 10.0 mi East 11.5 mph - N/A   Scattered Clouds
4:50 PM 87.8 °F 91.4 °F 68.0 °F 52% 30.11 in 10.0 mi East 13.8 mph - N/A   Mostly Cloudy
5:50 PM 82.4 °F 85.4 °F 68.0 °F 62% 30.11 in 10.0 mi ESE 9.2 mph - N/A   Mostly Cloudy
6:50 PM 82.4 °F 87.2 °F 71.6 °F 70% 30.11 in 10.0 mi North - - N/A   Mostly Cloudy
7:50 PM 78.8 °F - 71.6 °F 78% 30.12 in 10.0 mi SE 4.6 mph - N/A   Overcast
8:50 PM 78.8 °F - 73.4 °F 83% 30.14 in 10.0 mi SE 6.9 mph - N/A   Mostly Cloudy
9:50 PM 77.0 °F - 73.4 °F 89% 30.16 in 10.0 mi ESE 4.6 mph - N/A   Scattered Clouds
10:50 PM 77.0 °F - 73.4 °F 89% 30.16 in 10.0 mi ESE 5.8 mph - N/A   Scattered Clouds
11:50 PM 77.0 °F - 73.4 °F 89% 30.14 in 10.0 mi ESE 6.9 mph - N/A   Scattered Clouds